Regional Weather Roundup
Issued by NWS Boston, MA

Home | Current Version | Previous Version | Text Only | Print | Product List | Glossary On
Versions: 1 2 3 4 5 6 7 8 9 10 11 12 13 14 15 16 17 18 19 20 21 22 23 24 25 26 27
000
ASUS41 KBOX 222210
RWRBOX

REGIONAL WEATHER ROUNDUP
NATIONAL WEATHER SERVICE TAUNTON MA
500 PM EST THU FEB 22 2018

NOTE:  "FAIR" INDICATES FEW OR NO CLOUDS BELOW 12,000 FEET WITH NO
SIGNIFICANT WEATHER AND/OR OBSTRUCTIONS TO VISIBILITY.

MAZALL-222300-
EASTERN MASSACHUSETTS

CITY           SKY/WX    TMP DP  RH WIND       PRES   REMARKS
BOSTON         LGT SNOW  32  30  92 N6        30.68  VSB 3/4 WCI  26
BEVERLY        SNOW      33  32  96 CALM      30.67R VSB 1/2
LAWRENCE       LGT SNOW  35  31  85 NW6       30.69R VSB 3/4 WCI  30
BEDFORD        SNOW      32  31  96 E3        30.66R VSB 1/2
BLUE HILL        N/A    N/A N/A N/A NE7       30.63R
NORWOOD        LGT SNOW  34  31  88 NE7       30.68R VSB 1   WCI  28
MARSHFIELD     LGT SNOW  34  30  86 NE8G16    30.67R WCI  27
PLYMOUTH       LGT SNOW  37  26  64 NE12      30.65R WCI  29
TAUNTON        LGT SNOW  35  28  75 VRB5      30.66R WCI  31
NEW BEDFORD    LGT RAIN  35  32  88 NE7       30.63R WCI  29
$$

MAZALL-222300-
CAPE COD AND THE ISLANDS

CITY           SKY/WX    TMP DP  RH WIND       PRES   REMARKS
FALMOUTH         N/A    N/A N/A N/A MISG        N/A
HYANNIS        LGT RAIN  36  29  75 N8        30.63R WCI  30
CHATHAM        LGT RAIN  37  30  75 N10       30.64R WCI  30
PROVINCETOWN   LGT SNOW  33  29  85 N16       30.68R FOG     WCI  23
NANTUCKET      CLOUDY    39  33  79 N21G26    30.60R WCI  29
MARTHAS VNYRD  CLOUDY    39  28  64 N12       30.61R WCI  32
$$

MAZALL-222300-
CENTRAL AND WESTERN MASSACHUSETTS

CITY           SKY/WX    TMP DP  RH WIND       PRES   REMARKS
WORCESTER      LGT SNOW  31  29  92 NE5       30.62R VSB 3/4 WCI  26
FITCHBURG      LGT SNOW  35  33  92 CALM      30.67R VSB 1
ORANGE         LGT SNOW  30  30 100 CALM      30.67R VSB 1
SPRINGFIELD    LGT SNOW  32  30  92 NE10      30.66  FOG     WCI  24
WESTFIELD      LGT SNOW  32  32 100 NE9       30.67R FOG     WCI  24
NORTH ADAMS    FLURRIES  31  29  92 CALM      30.65R
PITTSFIELD     LGT SNOW  32  29  88 CALM      30.60S FOG
$$

RIZALL-222300-
RHODE ISLAND

CITY           SKY/WX    TMP DP  RH WIND       PRES   REMARKS
PROVIDENCE     LGT SNOW  35  33  92 N13       30.66R FOG     WCI  26
NEWPORT        LGT RAIN  35  33  92 NE8       30.62S FOG     WCI  29
BLOCK ISLAND   LGT RAIN  38  31  76 NE9       30.62R WCI  31
SMITHFIELD     LGT SNOW  32  30  93 MISG      30.65R VSB 3/4
WESTERLY       LGT RAIN  38  35  89 N7        30.64R FOG
$$

CTZALL-222300-
CONNECTICUT

CITY           SKY/WX    TMP DP  RH WIND       PRES   REMARKS
BRADLEY INTL   LGT SNOW  33  32  96 N12       30.67R VSB 1   WCI  24
HARTFORD       LGT SNOW  33  32  96 N9        30.67R VSB 3/4 WCI  25
BRIDGEPORT     LGT RAIN  37  33  85 N13       30.63R FOG     WCI  29
DANBURY        LGT RAIN  35  33  92 NE8       30.64R FOG     WCI  29
GROTON         LGT RAIN  39  35  86 NE9       30.64R FOG
NEW HAVEN      LGT RAIN  36  32  85 N17       30.63R FOG     WCI  26
CHESTER        RAIN      36  34  93 N7        30.62R WCI  30
MERIDEN        LGT SNOW  33  31  92 N9        30.66R FOG     WCI  25
WILLIMANTIC    LGT SNOW  35  32  88 N5        30.66R FOG     WCI  31
OXFORD         LGT SNOW  32  30  92 NE10      30.62R FOG     WCI  24
$$

MEZ002-015-021-024-NHZ003-005-008-011-012-014-VTZ005-008-222300-
NORTHERN NEW ENGLAND

CITY           SKY/WX    TMP DP  RH WIND       PRES   REMARKS
PORTLAND ME    CLOUDY    34  27  75 W8        30.66R WCI  27
BANGOR ME      CLOUDY    32  15  49 NW8       30.64R WCI  25
CONCORD NH     LGT SNOW  31  28  89 NW6       30.66R FOG     WCI  25
MANCHESTER NH  LGT SNOW  31  30  96 NW6       30.66R VSB 1   WCI  25
NASHUA NH      LGT SNOW  32  31  96 NW5       30.69R FOG     WCI  27
PORTSMOUTH NH  SNOW      33  32  98 W3        30.66  VSB 1/2
JAFFREY NH     LGT SNOW  31  30  96 CALM      30.62R FOG
KEENE NH       LGT SNOW  30  28  92 CALM      30.67R FOG
BURLINGTON VT  MOCLDY    28  15  58 NW3       30.69S
MT. WASHINGTON CLOUDY    19 -11  25 NW31        N/A  WCI   0
$$

NYZ052-076-222300-
EASTERN NEW YORK

CITY           SKY/WX    TMP DP  RH WIND       PRES   REMARKS
ALBANY         FLURRIES  30  25  81 NE7       30.69S WCI  23
NEW YORK CITY  RAIN      38  33  82 NE13      30.63R WCI  30
$$

ANZALL-222300-
MARINE OBSERVATIONS

STATION/POSITION TIME  TEMP    WIND        PRES    VSBY  WAVE
                       AIR SEA DIR/SP/G                  HT/PER
                 (UTC) (F)     (DEG/KT/KT) (MB)    (MI)  (FT/S)
BOSTON BUOY      2150   32 40   20/ 10/ 14 1038.1R         3/ 6
BUZZARDS BAY     2100   38      40/ 17/ 18 1036.2R
NANTUCKET SOUND  2050   38 38   30/ 16/ 17 1035.7          2/ 4
MASS BAY-STELLWA 2104   33 40              1036.9R         3/ 5
ISLE OF SHOALS   2200   32      30/  7/  8 1038.5R
S OF BLOCK IS    2143      39                N/A           4/ 4
$$

......................KEY.........................
  SKY/WX - SKY CONDITION/PRESENT WEATHER
  TMP    - TEMPERATURE IN FAHRENHEIT
  DWPT   - DEWPOINT IN FAHRENHEIT
  RH     - RELATIVE HUMIDITY IN PERCENT
  WIND   - DIRECTION AND SPEED IN MPH
  PRES   - MEAN SEA LEVEL PRESSURE IN INCHES OF HG
  WCI    - WIND CHILL INDEX
  VSB    - VISIBILITY IN MILES
  HX     - HEAT INDEX
  TC     - TEMPERATURE IN CELSIUS
  VRB    - VARIABLE WIND DIRECTION
  N/A    - NOT AVAILABLE




USA.gov is the U.S. government's official web portal to all federal, state and local government web resources and services.